Weather History for Missoula, MT

Change the Weather History Date:

Friday, May 24, 2013

  Actual Average Record
Temperature  
Mean Temperature 51 °F 56 °F  
Max Temperature 64 °F 70 °F 93 °F (1934)
Min Temperature 37 °F 42 °F 29 °F (1964)
Degree Days  
Heating Degree Days 14 9  
Month to date heating degree days 230 299  
Since 1 July heating degree days 6709 7062  
Cooling Degree Days 0 0  
Month to date cooling degree days 4 0  
Year to date cooling degree days 4 0  
Moisture  
Dew Point 35 °F    
Average Humidity 61    
Maximum Humidity 85    
Minimum Humidity 36    
Precipitation  
Precipitation 0.01 in 0.08 in 1.31 in (1953)
Month to date precipitation 1.02 1.42  
Year to date precipitation 3.76 5.19  
Snow  
Snow 0.00 in - - ()
Month to date snowfall T  
Year to date snowfall 27.4  
Since 1 July snowfall 48.5  
Snow Depth 0.00 in    
Sea Level Pressure  
Sea Level Pressure 29.96 in    
Wind  
Wind Speed 7 mph (WSW)    
Max Wind Speed 33 mph    
Max Gust Speed 41 mph    
Visibility 10 miles    
Events Rain    
T = Trace of Precipitation, MM = Missing Value Source: NWS Daily Summary

Daily Weather History Graph

Daily Weather History Graph

Search for Another Location

Airport:

Trip Planner

Search our weather history database for the weather conditions in past years. The results will help you decide how hot, cold, wet, or windy it might be!

Date:

Astronomy

May. 24, 2013 Rise Set
Actual Time 5:51 AM MDT 9:15 PM MDT
Civil Twilight 5:13 AM MDT 9:53 PM MDT
Nautical Twilight 4:24 AM MDT 10:42 PM MDT
Astronomical Twilight 3:21 AM MDT 11:47 PM MDT
Moon 9:00 PM MDT 5:30 AM MDT
Length of Visible Light 16h 39m
Length of Day
15h 24m
Full, 100% of the Moon is Illuminated
May 24
Full
May 24
Full
May 31
Last Quarter
Jun 8
New
Jun 16
First Quarter

Hourly Weather History & Observations

Time (MDT) Temp. Windchill Dew Point Humidity Pressure Visibility Wind Dir Wind Speed Gust Speed Precip Events Conditions
12:53 AM 45.0 °F 40.1 °F 36.0 °F 71% 29.95 in 10.0 mi WNW 9.2 mph - N/A   Clear
1:53 AM 46.0 °F 43.9 °F 36.0 °F 68% 29.94 in 10.0 mi North 4.6 mph - N/A   Partly Cloudy
2:53 AM 42.1 °F - 37.0 °F 82% 29.96 in 10.0 mi Calm Calm - N/A   Clear
3:53 AM 42.1 °F - 36.0 °F 79% 29.95 in 10.0 mi Calm Calm - N/A   Clear
4:53 AM 42.1 °F - 35.1 °F 76% 29.96 in 10.0 mi Calm Calm - N/A   Clear
5:53 AM 37.9 °F - 34.0 °F 86% 29.97 in 10.0 mi Calm Calm - N/A   Clear
6:53 AM 39.0 °F - 36.0 °F 89% 29.99 in 10.0 mi Calm Calm - N/A   Clear
7:53 AM 44.1 °F - 36.0 °F 73% 29.99 in 10.0 mi Calm Calm - N/A   Clear
8:53 AM 48.0 °F - 37.0 °F 66% 29.97 in 10.0 mi SE 3.5 mph - N/A   Clear
9:53 AM 51.1 °F - 37.0 °F 59% 29.95 in 10.0 mi Calm Calm - N/A   Clear
10:53 AM 55.9 °F - 35.1 °F 45% 29.91 in 10.0 mi Variable 3.5 mph - N/A   Clear
11:53 AM 57.9 °F - 34.0 °F 41% 29.89 in 10.0 mi West 6.9 mph - N/A   Mostly Cloudy
12:53 PM 60.1 °F - 33.1 °F 36% 29.90 in 10.0 mi West 9.2 mph 20.7 mph N/A   Mostly Cloudy
1:53 PM 55.9 °F - 37.0 °F 49% 29.90 in 10.0 mi West 20.7 mph 29.9 mph 0.00 in Rain Light Rain
2:07 PM 60.8 °F - 33.8 °F 36% 29.89 in 10.0 mi West 13.8 mph 19.6 mph 0.00 in   Scattered Clouds
2:53 PM 62.1 °F - 32.0 °F 32% 29.88 in 10.0 mi SSW 8.1 mph 23.0 mph 0.00 in   Mostly Cloudy
3:53 PM 60.1 °F - 35.1 °F 39% 29.91 in 10.0 mi WSW 17.3 mph 31.1 mph N/A   Scattered Clouds
4:53 PM 53.1 °F - 39.0 °F 59% 29.98 in 10.0 mi NNW 9.2 mph 16.1 mph 0.00 in   Mostly Cloudy
5:53 PM 54.0 °F - 36.0 °F 51% 30.00 in 10.0 mi East 12.7 mph 16.1 mph N/A   Overcast
6:53 PM 55.9 °F - 35.1 °F 45% 29.99 in 10.0 mi SE 6.9 mph - N/A   Overcast
7:53 PM 55.0 °F - 30.9 °F 40% 30.00 in 10.0 mi West 13.8 mph 23.0 mph N/A   Mostly Cloudy
8:53 PM 51.1 °F - 32.0 °F 48% 30.02 in 10.0 mi WSW 11.5 mph - N/A   Overcast
9:53 PM 48.9 °F - 35.1 °F 59% 30.04 in 10.0 mi SSW 9.2 mph - N/A   Overcast
10:53 PM 45.0 °F 39.7 °F 35.1 °F 68% 30.05 in 10.0 mi SW 10.4 mph - N/A   Scattered Clouds
11:53 PM 45.0 °F 40.6 °F 34.0 °F 65% 30.04 in 10.0 mi West 8.1 mph - N/A   Scattered Clouds